Regional Weather Roundup
Issued by NWS

Home | Current Version | Previous Version | Text Only | Print | Product List | Glossary Off
Versions: 1 2 3 4 5 6 7 8 9 10 11 12 13 14 15 16 17 18 19 20 21 22 23 24 25 26 27 28 29 30 31 32 33 34 35 36 37 38 39 40 41 42 43 44 45 46 47 48 49 50

000
ASUS43 KMKX 061359
RWRWI

WISCONSIN REGIONAL WEATHER ROUNDUP
NATIONAL WEATHER SERVICE MILWAUKEE/SULLIVAN WI
800 AM CST FRI MAR 06 2015

NOTE: "FAIR" INDICATES FEW OR NO CLOUDS BELOW 12,000 FEET WITH NO
SIGNIFICANT WEATHER AND/OR OBSTRUCTIONS TO VISIBILITY.

WIZ001-002-006>008-014>016-023>028-061500-
NORTHWEST WISCONSIN

CITY           SKY/WX    TMP DP  RH WIND       PRES   REMARKS
SUPERIOR ARPT  CLOUDY    14   4  64 SW13      30.01S WCI   0
ASHLAND        CLOUDY    13   1  59 SW15      30.01S WCI  -3
HAYWARD        CLOUDY    11   1  64 S15       30.02S WCI  -5
SIREN          PTSUNNY   15   5  62 SW8       30.04R WCI   5
CUMBERLAND     CLOUDY    10   1  67 S9        30.03F WCI  -2
RICE LAKE      CLOUDY     8   1  72 SE6       30.09S WCI  -2
CHETEK         CLOUDY     7   0  72 SE6       30.08F WCI  -3
LADYSMITH      CLOUDY     8   0  70 S9        30.09F WCI  -6
EAU CLAIRE     NOT AVBL
MENOMONIE      PTSUNNY   12   1  60 S8        30.11F WCI   1
NEW RICHMOND   CLOUDY    14   4  64 S10       30.06F WCI   1
OSCEOLA        PTSUNNY   14   4  65 S5        30.10S WCI   6
$$

WIZ003>005-009-010-017-018-061500-
NORTH CENTRAL WISCONSIN

CITY           SKY/WX    TMP DP  RH WIND       PRES   REMARKS
MANITOWISH WTR CLOUDY     1  -4  76 S7        30.00F WCI -11
ARBOR VITAE    MOSUNNY    3  -4  73 S10       30.03S WCI -12
WOODRUFF       MOSUNNY    3  -4  73 S10       30.03S WCI -12
RHINELANDER    CLOUDY     6  -4  63 SW14      30.05F WCI -11
EAGLE RIVER    PTSUNNY    6  -4  63 SW8G16    30.02F WCI  -7
LAND O LAKES   CLOUDY     4  -3  73 SW7       30.01F WCI  -8
PHILLIPS       CLOUDY     7  -1  67 S10       30.04F WCI  -7
TOMAHAWK       CLOUDY     1  -4  77 CALM      30.08F
MEDFORD        MOSUNNY    6  -2  69 S12       30.09S WCI -10
MERRILL        CLOUDY     4  -3  72 SW9       30.11S WCI -10
$$

WIZ029-030-035-036-043>047-061500-
CENTRAL WISCONSIN

CITY           SKY/WX    TMP DP  RH WIND       PRES   REMARKS
WAUSAU         CLOUDY     2  -4  76 S7        30.12F WCI -11
MOSINEE        SUNNY      1  -2  85 S12       30.14F WCI -15
MARSHFIELD     MOSUNNY    3  -4  72 S9        30.13F WCI -12
STEVENS POINT  CLOUDY     3  -4  72 S10       30.18F WCI -12
WAUPACA        MOSUNNY    5  -3  68 S8        30.23F WCI  -8
WAUTOMA        NOT AVBL
WISC RAPIDS    PTSUNNY    4  -4  69 S7        30.19F WCI  -8
CAMP DOUGLAS   NOT AVBL
$$

WIZ011>013-019>022-031-037>040-048>050-061500-
NORTHEAST WISCONSIN

CITY           SKY/WX    TMP DP  RH WIND       PRES   REMARKS
ANTIGO         PTSUNNY    0  -5  78 SW10      30.10F WCI -16
SHAWANO        CLOUDY     4  -4  68 SW6       30.23S WCI  -6
OCONTO         SUNNY      6  -4  65 SW7       30.24F WCI  -6
STURGEON BAY   SUNNY      7  -2  66 SW14      30.23F WCI -10
GREEN BAY      MOSUNNY    5  -2  72 S14       30.25F WCI -12
MANITOWOC      NOT AVBL
APPLETON       MOSUNNY    7  -4  61 S12       30.25F WCI  -9
CLINTONVILLE   MOSUNNY    3  -4  72 SW9       30.23F WCI -11
OSHKOSH        MOSUNNY    6  -2  69 S16       30.26F WCI -12
$$

WIZ032>034-041-042-053>061-061500-
SOUTHWEST WISCONSIN

CITY           SKY/WX    TMP DP  RH WIND       PRES   REMARKS
LA CROSSE      SUNNY     11   1  64 S17       30.20F WCI  -6
SPARTA         SUNNY     11   0  61 CALM      30.20S
VIROQUA        SUNNY      7   0  71 S10       30.17S WCI  -7
BOSCOBEL       MOSUNNY   11   2  67 SW8       30.26F WCI  -1
PRAIRIE DU CHI SUNNY     10   0  65 E6        30.25F WCI   0
PLATTEVILLE    MOSUNNY    6   0  74 SE13      30.26F WCI -10
$$

WIZ056-057-062-063-064-067-068-061500-
SOUTH CENTRAL WISCONSIN

CITY           SKY/WX    TMP DP  RH WIND       PRES   REMARKS
REEDSBURG      MOSUNNY    5  -2  71 S5        30.24F WCI  -4
BARABOO/DELLS  PTSUNNY    9   0  66 S12       30.23F WCI  -6
LONE ROCK      NOT AVBL
MINERAL POINT  MOSUNNY    5   0  78 SE13      30.24F WCI -12
MADISON        PTSUNNY    8  -1  66 S13       30.29F WCI  -8
MIDDLETON      PTSUNNY    8  -3  62 S8        30.29S WCI  -5
WATERTOWN      SUNNY      3  -3  74 S5        30.31F WCI  -6
MONROE         MOSUNNY    5   0  78 S17       30.28F WCI -14
JANESVILLE     SUNNY      9  -2  61 S13G20    30.33F WCI  -7
$$

WIZ051-052-058>065-066-070>072-061500-
SOUTHEAST WISCONSIN

CITY           SKY/WX    TMP DP  RH WIND       PRES   REMARKS
MILWAUKEE      MOSUNNY    5  -4  66 SW15      30.35F WCI -13
WAUKESHA       SUNNY      1  -6  71 S6        30.33F WCI -10
MILWAUKEE/TIMM SUNNY      7  -4  61 SW12      30.34F WCI  -9
RACINE         SUNNY      6  -3  66 SW10      30.38F WCI  -9
BURLINGTON     MOSUNNY    1  -2  84 S13       30.35F WCI -16
KENOSHA        SUNNY      7  -2  66 SW12      30.37F WCI  -8
FOND DU LAC    MOSUNNY    8  -2  63 SW17G24   30.27F WCI -10
SHEBOYGAN      SUNNY      7  -2  66 SW14      30.29F WCI -10
WEST BEND      SUNNY      9  -2  61 S6        30.30F WCI  -1
JUNEAU         SUNNY      2  -4  74 S13       30.30F WCI -15
$$

LSZ147-162-061500-
LAKE SUPERIOR

STATION/POSITION TIME  TEMP    WIND        PRES    WAVE
                       AIR SEA DIR/SP/G            HT/PER
                 (UTC) (F)     (DEG/KT/KT) (MB)    (FT/S)
DEVILS ISLAND    1300   15     240/ 21/ 26 1016.7F
PORT WING        1340   15     210/  9/ 15 1016.6R
SAXON HARBOR     1340   16     200/  8/ 18 1015.9F
$$

LMZ867-665-643>646-061500-
LAKE MICHIGAN

STATION/POSITION TIME  TEMP    WIND        PRES    WAVE
                       AIR SEA DIR/SP/G            HT/PER
                 (UTC) (F)     (DEG/KT/KT) (MB)    (FT/S)
NORTHPORT PIER   1301    8     190/  4/ 16 1023.7F
KEWAUNEE LAKESHO 1300    5     230/  8/ 13 1024.4F
SHEBOYGAN LAKESH 1300    5     210/ 10/ 11 1028.5F
PORT WASHINGTON  1340   10     240/  7/ 10 1028.1F
MILWAUKEE LAKESH 1300    6     230/ 15/ 17   N/A
KENOSHA   LAKESH 1300    5     220/ 11/ 14 1029.1S
$$

TC  - TEMPERATURE IN CELSIUS
VSB - VISIBILITY IN STATUTE MILES
WCI - WIND CHILL INDEX
HX  - HEAT INDEX



USA.gov is the U.S. government's official web portal to all federal, state and local government web resources and services.